Weather History for Sierra Vista, AZ

Change the Weather History Date:

Saturday, January 18, 2014

  Actual Average Record
Temperature  
Mean Temperature 52 °F -  
Max Temperature 68 °F 59 °F 77 °F (2000)
Min Temperature 37 °F 39 °F 12 °F (1987)
Degree Days  
Heating Degree Days 12    
Growing Degree Days 2 (Base 50)    
Moisture  
Dew Point 5 °F    
Average Humidity 16    
Maximum Humidity 30    
Minimum Humidity 6    
Precipitation  
Precipitation 0.00 in - - ()
Sea Level Pressure  
Sea Level Pressure 30.11 in    
Wind  
Wind Speed 5 mph (SSE)    
Max Wind Speed 9 mph    
Max Gust Speed -    
Visibility 10 miles    
Events      
Averages and records for this station are not official NWS values.
T = Trace of Precipitation, MM = Missing Value Source: NWS Daily Summary

Daily Weather History Graph

Daily Weather History Graph

Search for Another Location

Airport:

Trip Planner

Search our weather history database for the weather conditions in past years. The results will help you decide how hot, cold, wet, or windy it might be!

Date:

Astronomy

Jan. 18, 2014 Rise Set
Actual Time 7:20 AM MST 5:43 PM MST
Civil Twilight 6:54 AM MST 6:09 PM MST
Nautical Twilight 6:24 AM MST 6:39 PM MST
Astronomical Twilight 5:55 AM MST 7:08 PM MST
Moon 8:15 PM MST (1/18) 8:33 AM MST (1/18)
Length of Visible Light 11h 15m
Length of Day
10h 22m
Waning Gibbous, 94% of the Moon is Illuminated
Jan 18
Waning Gibbous
Jan 23
Last Quarter
Jan 30
New
Feb 6
First Quarter
Feb 14
Full

Hourly Weather History & Observations

Time (MST) Temp. Windchill Dew Point Humidity Pressure Visibility Wind Dir Wind Speed Gust Speed Precip Events Conditions
12:56 AM 45.0 °F 41.8 °F 7.0 °F 21% 30.08 in 10.0 mi WSW 5.8 mph - N/A   Clear
1:56 AM 45.0 °F 43.5 °F 7.0 °F 21% 30.08 in 10.0 mi WSW 3.5 mph - N/A   Clear
2:56 AM 42.1 °F 38.4 °F 8.1 °F 25% 30.09 in 10.0 mi SSW 5.8 mph - N/A   Clear
3:56 AM 44.1 °F 41.5 °F 7.0 °F 22% 30.08 in 10.0 mi SSW 4.6 mph - N/A   Clear
4:56 AM 39.9 °F 36.7 °F 8.1 °F 27% 30.08 in 10.0 mi SSW 4.6 mph - N/A   Clear
5:56 AM 39.9 °F 37.8 °F 7.0 °F 26% 30.13 in 10.0 mi West 3.5 mph - N/A   Clear
6:56 AM 37.0 °F 34.5 °F 8.1 °F 30% 30.16 in 10.0 mi South 3.5 mph - N/A   Clear
7:56 AM 43.0 °F 41.3 °F 8.1 °F 24% 30.14 in 10.0 mi South 3.5 mph - N/A   Clear
8:56 AM 50.0 °F - 7.0 °F 18% 30.15 in 10.0 mi Calm Calm - N/A   Clear
9:56 AM 55.9 °F - 7.0 °F 14% 30.15 in 10.0 mi East 4.6 mph - N/A   Clear
10:56 AM 61.0 °F - 6.1 °F 11% 30.14 in 10.0 mi SE 5.8 mph - N/A   Clear
11:56 AM 64.0 °F - 3.9 °F 9% 30.11 in 10.0 mi ESE 4.6 mph - N/A   Clear
12:56 PM 66.0 °F - 1.0 °F 8% 30.08 in 10.0 mi ENE 3.5 mph - N/A   Clear
1:56 PM 66.0 °F - -0.0 °F 7% 30.07 in 10.0 mi Calm Calm - N/A   Clear
2:56 PM 68.0 °F - -2.0 °F 6% 30.06 in 10.0 mi NE 9.2 mph - N/A   Clear
3:56 PM 66.9 °F - 1.0 °F 7% 30.06 in 10.0 mi East 4.6 mph - N/A   Clear
4:56 PM 64.9 °F - -0.0 °F 7% 30.08 in 10.0 mi East 5.8 mph - N/A   Clear
5:56 PM 57.0 °F - 1.9 °F 11% 30.12 in 10.0 mi SE 5.8 mph - N/A   Clear
6:56 PM 52.0 °F - 5.0 °F 15% 30.15 in 10.0 mi Variable 4.6 mph - N/A   Clear
7:56 PM 52.0 °F - 5.0 °F 15% 30.15 in 10.0 mi SSE 9.2 mph - N/A   Clear
8:56 PM 53.1 °F - 3.9 °F 14% 30.14 in 10.0 mi South 8.1 mph - N/A   Clear
9:56 PM 50.0 °F - 5.0 °F 16% 30.15 in 10.0 mi Calm Calm - N/A   Clear
10:56 PM 45.0 °F 41.8 °F 6.1 °F 20% 30.16 in 10.0 mi SE 5.8 mph - N/A   Clear
11:56 PM 48.0 °F - 7.0 °F 19% 30.14 in 10.0 mi South 8.1 mph - N/A   Clear